Regional Weather Roundup
Issued by NWS Spokane, WA

Home | Current Version | Previous Version | Text Only | Print | Product List | Glossary On
Versions: 1 2 3 4 5 6 7 8 9 10 11 12 13 14 15 16 17 18 19 20 21 22 23 24 25 26 27 28 29 30 31 32 33 34 35 36 37 38 39 40 41 42 43 44 45 46 47 48 49 50
000
NZUS01 KOTX 301500
RWROTX
EASTERN WASHINGTON/NORTHERN IDAHO ROUNDUP
NATIONAL WEATHER SERVICE, SPOKANE WA
800 AM PDT THU JUL 30 2015

Note: "fair" indicated few or no clouds below 12,000 feet with no
significant weather and/or obstructions to visibility.

...NORTHEAST WASHINGTON AND NORTHERN IDAHO PANHANDLE...

CITY           SKY/WX    TMP DP  RH WIND       PRES   REMARKS
SPOKANE INTL   SUNNY     69  39  33 E3        30.20R
SPOKANE DOWNTO SUNNY     67  44  43 CALM      30.20R
COEUR D ALENE  SUNNY     64  46  52 NE5       30.21S
DEER PARK      SUNNY     66  45  46 CALM      30.21R

...SOUTHEAST WASHINGTON AND SOUTHERN IDAHO PANHANDLE...

CITY           SKY/WX    TMP DP  RH WIND       PRES   REMARKS
WALLA WALLA    SUNNY     78  37  22 S5        30.11R
PULLMAN/MOSCOW SUNNY     73  40  30 E10       30.23R
LOWELL           N/A     55  48  77 N3        30.28S

...COLUMBIA BASIN...

CITY           SKY/WX    TMP DP  RH WIND       PRES   REMARKS
EPHRATA        SUNNY     73  42  32 NE3       30.13R
MOSES LAKE     SUNNY     68  38  33 N3        30.13R
TRI CITIES     SUNNY     66  46  48 CALM      30.11R
HERMISTON      SUNNY     70  40  33 CALM      30.10R
PENDLETON      SUNNY     72  37  28 SE5       30.12R

...EAST SLOPES CASCADES...

CITY           SKY/WX    TMP DP  RH WIND       PRES   REMARKS
THE DALLES     SUNNY     66  39  37 CALM      30.09R
YAKIMA         SUNNY     72  45  37 W9        30.13S
ELLENSBURG     SUNNY     66  43  43 E3        30.17R
WENATCHEE      SUNNY     69  43  38 W9        30.14R
OMAK           SUNNY     71  36  27 N10       30.16R

...SOUTHERN BRITISH COLUMBIA...

CITY           SKY/WX    TMP DP  RH WIND       PRES   REMARKS

...WESTERN MONTANA...

CITY           SKY/WX    TMP DP  RH WIND       PRES   REMARKS
MISSOULA       SUNNY     57  46  66 CALM      30.33S

...NEIGHBORING CITIES...

CITY           SKY/WX    TMP DP  RH WIND       PRES   REMARKS
SEATTLE        SUNNY     69  54  58 N7        30.12R



USA.gov is the U.S. government's official web portal to all federal, state and local government web resources and services.